CAPE
0 0 0 0 0 0 0 0 0 0 0 0 0 0 0 0 0 0 0 0 0 0 0 0 0 0 0 0 0 0 0 0 1 1 0 0 0 1
0 0 0 0 0 0 0 0 0 0 0 0 0 0 0 0 0 0 0 0 0 0 0 0 0 0 0 0 0 0 0 0 0 0 0 1 0 0
0 0 0 0 0 0 0 0 0 0 0 0 0 0 0 0 0 0 0 0 0 0 0 0 0 0 0 0 0 0 0 0 0 0 0 0 0 0
0 0 0 0 0 0 0 0 0 0 0 0 0 0 0 0 0 0 0 0 0 0 0 0 0 0 0 0 0 0 0 0 0 0 0 0 1 0
0 0 0 0 0 0 0 0 0 0 0 0 0 0 0 0 0 0 0 0 0 0 0 0 0 0 0 0 0 0 0 0 0 0 0 0 0 0
0 0 0 0 0 0 0 0 0 0 0 0 0 0 0 0 0 0 0 0 0 0 0 0 0 0 0 0 0 0 0 0 0 0 0 0 1 1
0 0 0 0 0 0 0 0 0 0 0 0 0 0 0 0 0 0 0 0 0 0 0 0 0 0 0 0 0 0 0 0 0 1 0 0 0 1
0 0 0 0 0 0 0 0 0 0 0 0 0 0 0 0 0 0 0 0 0 0 0 0 0 0 0 0 0 0 0 0 0 0 1 1 2 3
0 0 0 0 0 0 0 0 0 0 0 0 0 0 0 0 0 0 0 0 0 0 0 0 0 0 0 0 0 0 0 0 0 0 1 1 5 10
0 0 0 0 0 0 0 0 1 1 1 1 1 1 1 0 0 0 0 0 0 0 0 2 0 0 6 5 0 0 0 0 0 0 0 1 2 2
0 0 0 1 0 0 0 0 0 0 2 0 0 0 1 0 0 0 0 0 0 0 1 1 0 0 0 0 0 0 0 0 0 0 0 1 0 1
0 0 0 0 0 0 0 0 0 0 0 0 0 0 0 1 0 0 3 3 3 1 0 0 0 0 1 0 0 0 2 0 0 0 1 3 3 4
0 0 0 0 0 0 0 0 0 0 0 0 0 0 0 1 1 3 3 5 3 1 0 4 2 1 2 2 0 0 4 3 1 0 0 2 2 1
0 0 0 0 0 0 0 0 0 0 0 0 0 0 0 1 1 0 0 2 3 4 8 9 3 4 4 2 2 0 0 1 3 1 1 0 1 2
0 0 0 0 0 0 0 0 0 0 0 0 0 0 0 0 3 2 4 6 6 11 12 9 4 5 7 6 3 3 2 0 0 2 4 0 1 1
0 0 0 0 0 0 0 0 0 0 0 0 0 0 0 0 0 0 1 0 0 0 0 10 8 10 7 8 8 2 0 1 1 3 6 11 10 0
1 1 0 0 0 0 0 0 0 0 0 0 0 0 0 0 0 1 1 0 0 0 0 2 8 11 7 0 1 0 1 1 2 3 1 1 3 6
0 0 1 1 1 0 0 0 0 0 0 0 0 0 0 0 0 0 0 0 1 0 2 0 1 0 0 0 1 2 0 0 2 2 1 0 0 0
0 0 1 2 2 1 0 0 0 0 0 0 0 0 0 0 0 0 0 0 0 0 0 0 0 1 2 0 0 0 0 0 1 0 0 0 1 3
0 0 1 1 1 0 0 0 0 0 0 0 0 0 0 1 0 0 0 0 0 0 0 0 2 2 4 0 0 0 0 0 0 2 1 0 0 0
7 7 1 5 2 2 0 0 0 1 0 0 1 1 2 1 0 1 0 0 0 0 0 0 0 0 0 5 2 0 0 0 0 0 1 1 0 1
4 3 6 5 4 3 1 2 1 1 1 0 0 0 0 1 0 0 0 0 0 0 1 0 1 1 2 0 1 1 1 0 0 0 0 0 0 0
8 6 7 5 5 1 2 1 1 0 0 0 0 0 0 0 0 0 0 0 0 0 0 1 1 0 0 1 0 1 0 0 2 0 0 0 0 0
CIN
0 0 0 0 0 0 0 0 0 0 0 0 0 0 0 0 0 0 0 0 0 0 0 0 0 0 0 0 0 0 0 0 0 -1 0 0 0 0
0 0 0 0 0 0 0 0 0 0 0 0 0 0 0 0 0 0 0 0 0 0 0 0 0 0 0 0 0 0 0 0 0 0 -1 -1 0 0
0 0 0 0 0 0 0 0 0 0 0 0 0 0 0 0 0 0 0 0 0 0 0 0 0 0 0 0 0 0 0 0 0 0 0 -1 -1 0
0 0 0 0 0 0 0 0 0 0 0 0 0 0 0 0 0 0 0 0 0 0 0 0 0 0 0 0 0 0 0 0 0 0 0 -1 0 -1
0 0 0 0 0 0 0 0 0 0 0 0 0 0 0 0 0 0 0 0 0 0 0 0 0 0 0 0 0 0 0 0 0 0 0 0 0 -1
0 0 0 0 0 0 0 0 0 0 0 0 0 0 0 0 0 0 0 0 0 0 0 0 0 0 0 0 0 0 0 0 0 0 0 0 -1 -1
0 0 0 0 0 0 0 0 0 0 0 0 0 0 0 0 0 0 0 0 0 0 0 0 0 0 0 0 0 0 0 0 -1 -1 -1 0 -1 0
0 0 0 0 0 0 0 0 0 0 0 0 0 0 0 0 0 0 0 0 0 0 0 0 0 0 0 0 0 0 0 0 0 -1 -1 -1 0 0
0 0 0 0 0 0 0 0 0 0 0 0 0 0 0 0 0 0 0 0 0 0 0 0 0 0 0 0 0 0 0 0 0 -1 -1 -1 -1 -2
0 0 0 0 -1 0 0 -1 0 -1 -1 -1 -1 -1 -1 0 0 0 0 0 0 0 -1 0 0 0 0 0 0 0 0 0 -1 -1 -1 -1 -1 -1
0 0 0 -1 0 0 0 0 -1 -1 0 0 0 0 -1 -1 -1 -1 0 -1 0 0 -2 0 0 0 0 0 0 0 0 0 0 -1 -1 -1 -1 -1
0 0 0 0 0 0 0 0 0 0 0 0 0 0 -1 -1 -1 -2 -2 -1 0 0 0 0 0 0 0 0 0 0 0 0 0 0 -1 -1 -1 0
0 0 0 0 0 0 0 0 0 0 0 0 -1 -2 -2 -3 -3 -2 -1 -2 -1 0 -1 0 0 0 0 0 0 0 0 0 0 0 -1 -1 -2 -2
0 0 0 0 0 0 0 0 0 0 0 0 0 0 0 -3 -4 -3 0 -2 -1 -1 -1 0 0 0 0 0 0 0 0 0 0 0 0 0 -1 -1
-1 0 0 0 0 0 0 0 0 0 0 0 0 0 0 -2 -1 -1 0 0 0 0 0 0 0 0 0 0 0 0 0 0 0 0 0 0 0 0
0 0 0 0 0 0 0 0 0 0 0 0 0 0 0 0 -1 -2 0 -2 -1 0 -1 0 0 0 0 0 0 0 0 0 0 0 0 0 0 0
-1 -1 0 -1 0 0 0 0 0 0 0 0 0 0 0 0 0 -2 -2 -2 -1 0 0 0 0 0 0 0 0 0 0 0 0 0 0 0 0 0
0 0 -2 -3 -2 0 0 0 0 -1 0 0 0 0 0 0 0 -1 -3 -2 0 0 0 0 0 0 0 0 -2 0 0 0 0 0 0 0 0 0
0 -1 -2 -2 -2 -3 -5 0 0 0 0 0 0 0 0 0 0 0 -4 -2 0 0 0 0 0 0 0 0 0 0 0 0 0 0 0 0 0 0
0 -1 -2 -3 -4 -4 -1 0 0 -5 -3 -4 -3 -4 -6 -5 -4 -3 -4 -2 0 0 0 0 0 0 0 0 -1 0 -1 0 -1 0 0 0 0 0
-3 -2 -4 -3 -3 -3 -4 -3 -3 -3 -3 -3 -4 -4 -5 -5 -3 -4 -3 -5 -3 0 0 0 0 -1 0 0 0 0 0 0 0 0 -1 0 0 0
-2 -3 -2 -2 -2 -2 -3 -3 -3 -3 -4 -4 -5 -5 -5 -4 -1 -5 -1 0 0 0 0 0 0 0 0 0 0 0 0 0 0 0 0 0 0 0
-1 -2 -1 -1 -1 -2 -2 -3 -3 -4 -2 -4 -3 -4 -6 -6 -4 0 -1 0 0 0 0 0 0 0 0 0 0 0 0 0 0 0 0 0 -1 -1
Wind_Speed
17 17 14 15 16 17 18 19 22 23 22 20 21 22 27 28 28 30 33 35 38 35 37 38 39 40 42 42 42 43 42 42 43 44 45 44 44 44
17 15 14 15 17 18 18 18 19 22 23 22 24 27 28 29 30 32 35 38 36 36 37 39 40 42 42 42 43 43 44 45 45 46 46 46 45 45
16 15 16 17 17 17 19 20 20 21 23 24 26 27 28 30 31 33 35 36 37 36 39 38 43 43 43 42 44 43 47 47 46 46 47 47 46 46
13 15 17 17 18 18 19 21 21 20 24 27 28 29 29 30 32 34 36 37 38 39 39 41 42 42 42 45 44 46 46 46 47 48 48 48 48 48
16 18 17 19 18 19 20 20 21 23 25 28 30 29 30 31 34 35 37 38 37 39 41 42 42 41 43 45 45 46 47 47 47 47 49 51 51 51
18 18 17 18 20 21 21 23 24 26 27 30 30 31 33 33 35 39 41 40 41 42 42 41 42 41 45 45 45 46 46 45 48 51 51 52 53 54
17 17 16 19 19 21 23 24 25 26 27 29 31 33 35 37 38 39 41 42 42 41 42 40 43 44 43 44 45 46 48 50 50 53 55 56 55 55
17 15 16 18 18 19 19 21 23 25 26 29 32 35 36 38 38 41 42 44 46 38 42 45 44 45 45 44 47 47 48 53 55 55 54 53 53 53
17 16 16 18 21 21 19 19 21 23 25 29 32 33 36 37 40 41 41 42 43 43 44 46 44 45 45 47 47 52 55 55 53 52 51 53 52 51
14 15 18 20 20 22 23 23 25 26 27 28 30 32 33 36 38 39 40 41 40 39 40 46 44 46 45 45 52 54 51 50 50 51 53 54 54 55
15 16 18 19 20 23 24 26 27 28 27 27 29 30 33 35 34 36 38 42 44 41 39 42 43 46 48 50 45 48 47 51 54 52 52 53 54 55
14 15 17 19 20 21 24 27 29 29 31 33 33 33 32 31 31 31 35 38 40 43 38 43 45 47 51 47 39 50 48 50 52 52 51 52 52 52
16 16 14 15 20 22 25 27 28 30 31 32 31 33 33 32 31 32 33 36 39 40 40 41 44 45 43 55 49 47 47 48 49 49 51 50 50 51
15 17 17 18 21 23 24 26 28 29 29 31 33 34 34 33 33 35 36 34 32 34 36 37 39 40 44 51 54 49 47 48 48 50 48 47 46 47
16 16 17 20 22 24 22 23 26 27 30 32 35 34 33 35 35 36 36 35 35 34 34 35 35 37 37 43 54 51 52 51 48 44 46 48 48 47
16 17 19 21 22 22 22 24 25 28 30 32 33 33 34 36 36 36 38 38 39 38 34 33 35 35 36 36 44 52 50 51 48 48 49 48 47 48
13 16 19 20 22 23 25 27 28 29 31 31 33 36 37 36 37 36 37 38 38 39 40 37 36 35 34 36 44 45 49 49 48 49 49 49 47 46
16 20 21 23 24 27 28 29 29 29 30 32 35 36 37 37 37 37 36 35 37 38 39 40 41 41 36 29 31 45 46 49 49 48 47 47 48 45
19 21 23 24 25 26 28 29 31 30 32 33 35 36 36 36 36 36 36 36 36 37 38 39 39 36 45 49 42 39 46 48 47 47 45 44 47 47
20 22 23 24 25 26 27 30 31 32 34 35 35 36 35 35 36 36 35 36 37 38 37 35 35 36 46 49 49 49 42 42 43 44 45 45 46 48
19 21 23 24 25 27 28 29 31 33 34 34 34 34 34 35 35 34 35 35 35 35 35 37 36 40 32 43 45 46 45 37 39 41 43 44 45 44
21 23 24 25 26 27 29 30 32 32 33 34 35 35 34 34 34 35 35 35 35 34 33 36 40 43 45 42 43 45 42 39 38 37 38 39 42 44
21 22 23 25 26 28 29 30 32 33 33 34 34 33 34 35 34 33 34 34 34 35 36 41 44 46 41 40 42 42 40 39 38 37 36 36 39 43
Wind_Direction
311 316 332 333 332 332 328 326 323 322 323 331 330 335 333 333 333 331 328 325 323 325 325 326 325 325 323 321 319 316 314 313 307 303 297 293 288 285
309 318 328 327 328 327 326 325 325 320 319 328 327 327 329 329 329 327 324 321 323 323 324 323 323 322 321 319 319 316 312 309 307 302 297 292 289 285
310 315 318 323 324 324 324 323 324 322 320 323 325 326 327 326 325 325 323 322 322 323 322 323 320 319 318 317 316 315 310 308 306 300 294 290 288 284
312 311 315 319 320 321 322 322 325 326 322 321 322 324 326 326 324 323 321 321 322 322 322 320 319 318 317 316 315 313 311 307 302 296 291 288 285 283
303 309 313 316 319 322 324 323 326 325 323 321 322 325 325 326 324 323 322 322 323 322 321 320 319 318 317 316 314 312 308 304 301 296 290 286 283 279
303 307 312 316 316 320 321 322 323 323 323 322 323 324 324 325 324 322 321 323 322 322 321 320 319 319 316 315 313 310 307 305 300 295 289 284 281 277
303 309 314 319 320 322 321 324 325 324 325 325 324 324 323 324 323 324 322 323 322 322 321 321 321 318 317 315 313 310 306 302 297 292 289 283 279 275
300 309 314 314 319 322 326 329 328 326 327 325 324 323 322 323 325 324 323 322 321 326 322 319 319 316 315 315 312 308 305 301 296 292 288 284 279 274
303 307 311 314 317 320 325 328 327 326 325 324 322 323 322 325 325 323 323 322 320 321 320 317 319 315 315 313 310 306 302 300 298 294 289 282 276 273
305 309 310 313 320 322 325 327 325 324 324 324 324 324 324 325 324 323 322 320 320 321 322 317 320 316 316 314 309 305 304 301 298 294 288 282 276 270
306 311 315 319 324 326 326 325 325 325 326 325 325 325 324 323 324 325 324 323 321 323 324 321 321 319 316 313 314 308 306 302 296 293 288 282 277 272
317 321 320 322 329 330 327 326 325 326 328 327 326 327 326 326 326 325 325 323 323 322 325 322 321 321 316 316 317 311 309 304 297 293 289 283 277 273
317 321 328 330 328 329 329 327 328 330 329 328 328 330 330 329 328 328 327 324 323 321 324 323 321 319 316 309 313 313 311 306 302 295 290 285 277 271
323 325 328 328 329 329 330 330 331 331 332 331 331 331 330 331 330 328 326 324 322 320 323 323 320 319 317 312 307 312 310 306 301 294 291 286 278 271
326 333 335 331 330 331 329 332 334 336 334 332 330 331 332 331 330 328 327 327 326 325 326 324 321 320 318 315 306 308 304 304 301 295 291 284 278 272
329 329 331 331 331 334 334 335 336 336 334 332 332 332 332 331 331 331 329 329 328 327 328 327 324 322 320 318 314 304 305 297 299 294 288 283 279 272
334 336 333 333 334 333 335 336 336 335 334 334 333 332 331 331 331 333 331 331 329 329 329 329 328 325 322 319 313 309 302 298 297 294 288 280 277 272
336 332 332 332 333 334 333 334 335 335 335 334 332 332 331 331 332 332 332 332 330 330 330 330 329 327 326 323 319 306 303 296 294 290 285 278 273 272
331 332 332 333 333 333 334 334 332 335 335 333 332 332 332 332 332 333 333 333 332 332 331 331 331 331 320 306 314 317 287 291 286 282 280 276 272 272
333 333 333 334 334 334 334 333 333 333 332 332 332 332 332 332 333 333 334 333 333 332 332 332 333 331 315 296 289 293 299 280 282 280 280 278 273 272
333 333 334 335 335 334 334 333 332 331 332 331 332 333 333 333 333 333 333 333 333 333 332 332 331 326 284 285 285 288 299 277 274 274 277 275 273 271
333 334 335 335 335 334 333 333 332 332 332 332 332 333 333 333 333 333 333 333 333 333 332 332 329 323 299 287 284 286 285 283 280 274 269 263 266 265
336 337 337 335 334 333 333 332 332 332 332 333 333 333 333 333 333 333 332 332 333 333 333 329 322 312 289 285 284 286 283 285 285 284 279 276 270 265